Regional Weather Roundup
Issued by NWS

Home | Current Version | Previous Version | Graphics & Text | Print | Product List | Glossary On
Versions: 1 2 3 4 5 6 7 8 9 10 11 12 13 14 15 16 17 18 19 20 21 22 23 24 25 26 27 28 29 30 31 32 33 34 35 36 37 38 39 40 41 42 43 44 45 46 47 48 49 50
000
ASUS43 KMKX 200410
RWRWI

WISCONSIN REGIONAL WEATHER ROUNDUP
NATIONAL WEATHER SERVICE MILWAUKEE/SULLIVAN WI
1100 PM CDT THU APR 19 2018

NOTE: "FAIR" INDICATES FEW OR NO CLOUDS BELOW 12,000 FEET WITH NO
SIGNIFICANT WEATHER AND/OR OBSTRUCTIONS TO VISIBILITY.

WIZ001-002-006>008-014>016-023>028-200500-
NORTHWEST WISCONSIN

CITY           SKY/WX    TMP DP  RH WIND       PRES   REMARKS
SUPERIOR ARPT  FAIR      41  16  36 SW6       30.39S
ASHLAND        FAIR      33  16  49 SW7       30.40S WCI  27
HAYWARD        FAIR      31  17  56 CALM      30.41S
SIREN          FAIR      32  21  63 SW3       30.42S
CUMBERLAND     FAIR      32  19  59 CALM      30.42S
RICE LAKE      FAIR      32  27  82 CALM      30.44S
CHETEK         FAIR      31  22  71 CALM      30.43S
LADYSMITH      FAIR      34  19  53 CALM      30.43S
EAU CLAIRE     FAIR      34  21  59 CALM      30.43S
MENOMONIE      FAIR      37  24  60 CALM      30.44S
NEW RICHMOND   FAIR      36  19  51 SW3       30.45R
OSCEOLA        FAIR      32  24  71 CALM      30.47R
$$

WIZ003>005-009-010-017-018-200500-
NORTH CENTRAL WISCONSIN

CITY           SKY/WX    TMP DP  RH WIND       PRES   REMARKS
MANITOWISH WTR FAIR      25  16  67 CALM      30.39S
ARBOR VITAE    FAIR      29  19  64 CALM      30.40R
WOODRUFF       FAIR      29  19  64 CALM      30.40R
RHINELANDER    FAIR      28  16  60 CALM      30.40R
EAGLE RIVER    FAIR      27  16  63 CALM      30.38S
LAND O LAKES   FAIR      24  13  65 CALM      30.40S
PHILLIPS       FAIR      27  20  73 CALM      30.40S
TOMAHAWK       FAIR      26  16  63 CALM      30.41R
MEDFORD        FAIR      35  18  51 W5        30.40S WCI  30
MERRILL          N/A     30  18  61 CALM      30.41S
$$

WIZ029-030-035-036-043>047-200500-
CENTRAL WISCONSIN

CITY           SKY/WX    TMP DP  RH WIND       PRES   REMARKS
WAUSAU         FAIR      37  22  54 N6        30.39S WCI  32
MOSINEE        FAIR      34  23  64 NW6       30.42S WCI  29
MARSHFIELD     FAIR      36  17  46 NW8       30.40F WCI  30
STEVENS POINT  FAIR      29  22  75 CALM      30.42S
WAUPACA        FAIR      43  19  38 W7        30.41S
WAUTOMA        FAIR      36  19  50 W5        30.42S WCI  32
WISC RAPIDS    FAIR      31  19  61 CALM      30.42F
CAMP DOUGLAS   FAIR      30  21  69 W5        30.43S WCI  25
$$

WIZ011>013-019>022-031-037>040-048>050-200500-
NORTHEAST WISCONSIN

CITY           SKY/WX    TMP DP  RH WIND       PRES   REMARKS
ANTIGO         FAIR      28  20  75 CALM      30.40R
SHAWANO        FAIR      32  22  67 CALM      30.40R
OCONTO         FAIR      29  19  66 CALM      30.40R
STURGEON BAY   FAIR      34  17  50 CALM      30.40S
GREEN BAY      FAIR      33  24  69 CALM      30.39S
MANITOWOC      FAIR      32  24  72 CALM      30.40S
APPLETON       CLEAR     37  19  48 W10       30.38S WCI  30
CLINTONVILLE   FAIR      34  21  59 W3        30.40S
OSHKOSH        FAIR      40  19  43 W6        30.40S
$$

WIZ032>034-041-042-053>061-200500-
SOUTHWEST WISCONSIN

CITY           SKY/WX    TMP DP  RH WIND       PRES   REMARKS
LA CROSSE      FAIR      35  27  72 CALM      30.45S
SPARTA         FAIR      26  22  83 CALM      30.46S
VIROQUA        FAIR      37  23  58 CALM      30.44S
BOSCOBEL       FAIR      30  25  81 CALM      30.46S
PRAIRIE DU CHI FAIR      31  26  80 CALM      30.46S
PLATTEVILLE    FAIR      38  27  62 N3        30.45S
$$

WIZ056-057-062-063-064-067-068-200500-
SOUTH CENTRAL WISCONSIN

CITY           SKY/WX    TMP DP  RH WIND       PRES   REMARKS
REEDSBURG      FAIR      30  24  76 CALM      30.43F
BARABOO/DELLS  FAIR      31  21  67 CALM      30.43S
LONE ROCK      FAIR      28  26  92 CALM      30.45S
MINERAL POINT  FAIR      37  23  56 CALM      30.43S
MADISON        FAIR      35  23  61 CALM      30.43S
MIDDLETON      FAIR      33  25  72 CALM      30.43F
WATERTOWN      FAIR      31  26  81 CALM      30.42S
MONROE         FAIR      41  21  45 NW5       30.42F
JANESVILLE     FAIR      32  30  93 CALM      30.44S
$$

WIZ051-052-058>065-066-070>072-200500-
SOUTHEAST WISCONSIN

CITY           SKY/WX    TMP DP  RH WIND       PRES   REMARKS
MILWAUKEE      FAIR      42  26  53 W6        30.41F
WAUKESHA       FAIR      36  25  64 W8        30.42S WCI  29
MILWAUKEE/TIMM FAIR      37  23  56 W3        30.42S
RACINE         FAIR      40  25  55 W8        30.43S WCI  34
BURLINGTON     FAIR      30  25  79 CALM      30.43R
KENOSHA        FAIR      35  24  64 W6        30.42S WCI  30
FOND DU LAC    FAIR      31  22  69 CALM      30.41S
SHEBOYGAN      FAIR      38  25  59 W7        30.39S WCI  33
WEST BEND      FAIR      37  27  65 W3        30.41S
JUNEAU         FAIR      32  24  73 CALM      30.43R
$$

LSZ147-162-200500-
LAKE SUPERIOR

STATION/POSITION TIME  TEMP    WIND        PRES    WAVE
                       AIR SEA DIR/SP/G            HT/PER
                 (UTC) (F)     (DEG/KT/KT) (MB)    (FT/S)
DEVILS ISLAND    0400   46     210/  2/  3 1029.5S
SAXON HARBOR     0330   32     190/  3/  6 1028.4S
$$

LMZ867-665-643>646-200500-
LAKE MICHIGAN

STATION/POSITION TIME  TEMP    WIND        PRES    WAVE
                       AIR SEA DIR/SP/G            HT/PER
                 (UTC) (F)     (DEG/KT/KT) (MB)    (FT/S)
NORTHPORT PIER   0340   34                 1028.4S
KEWAUNEE LAKESHO 0342   32     290/  3/  4 1028.3R
SHEBOYGAN LAKESH 0400   43     270/ 10/ 12 1029.6R
PORT WASHINGTON  0340   41     290/  5/  7 1030.1S
MILWAUKEE LAKESH 0350   43     290/ 10/ 12   N/A
KENOSHA   LAKESH 0400   41                 1029.8
$$

TC  - TEMPERATURE IN CELSIUS
VSB - VISIBILITY IN STATUTE MILES
WCI - WIND CHILL INDEX
HX  - HEAT INDEX





USA.gov is the U.S. government's official web portal to all federal, state and local government web resources and services.